User: anonymous   Login
Location: Zlin
(49.2330°N, 17.6670°E)
Time: 21:17:05
(UTC+01:00)
Language:

ISS - Orbit

View from above orbital plane
View from above orbital plane
View from above satellite
View from above satellite

Ground track
Ground track

The orbit data is extracted from the following two-line orbital elements,

1 25544U 98067A   16343.50528779  .00016717  00000-0  10270-3 0  9030
2 25544  51.6409 268.8349 0006373 309.0129  51.0456 15.53815061 32090
Epoch (UTC): 08 December 2016 12:07:36
Eccentricity: 0.0006373
inclination: 51.6409°
perigee height: 401 km
apogee height: 410 km
right ascension of ascending node: 268.8349°
argument of perigee: 309.0129°
revolutions per day: 15.53815061
mean anomaly at epoch: 51.0456°
orbit number at epoch: 3209

The dashed part of the orbit path shows where the satellite is in the earth's shadow,  

DLR